Погода в Александровском

Россия / Кировская область     58°15′36″N   47°57′53″E
темп.,
°C
ветер,
м/с
пор.,
м/с
влажн.,
%
обл.,
%
осадки,
мм/ч
давл.,
гПа
погр.,
м
15 мая, сб
сб1500:00+16з228868 0.1 101715
03:00+16зюз118898 0.1 101716
06:00+17всв2387100 0.4 101799
09:00+21юв3568100 0.4 1016416
12:00+26ююв5650100 0.0 10151249
15:00+28ююз594071 0.0 10132013
18:00+25ююз611475 0.0 10121030
21:00+19ююз3116592 0.0 1013318
16 мая, вс
вс1600:00+16ююз24810 0.1 101464
03:00+15ю378811 0.1 1014128
06:00+18ююз387537 0.0 1014285
09:00+23юз485769 0.0 10131040
12:00+25юз5104297 0.0 10131943
15:00+26зюз61240100 0.0 10132460
18:00+23зюз48485 0.0 1013738
21:00+17юз310715 0.0 1014220
17 мая, пн
пн1700:00+15юз311790 0.0 1014237
03:00+13юз39860 0.0 1015190
06:00+16зюз38740 0.0 1016322
09:00+21зюз47550 0.0 10171156
12:00+24зюз464474 0.0 10171773
15:00+25з46415 0.0 10172081
18:00+23зюз255316 0.0 1017259
21:00+18зюз22715 0.0 101728
18 мая, вт
вт1800:00+16юз117571 0.0 101811
03:00+15юв117832 0.0 101811
06:00+18вюв23665 0.0 1018131
09:00+24вюв33503 0.0 1018707
12:00+28ююв23401 0.0 10172009
15:00+29ююз23275 0.0 10163080
18:00+26ю23435 0.0 101674
21:00+20ююв22470 0.0 101613
19 мая, ср
ср1900:00+17юв23600 0.0 101751
03:00+15юв367241 0.0 101789
06:00+19юв31064100 0.0 1016275
09:00+26ююв583873 0.0 1016695
12:00+29ююв5729100 0.0 10151459
15:00+30ююв58255 0.0 10143349
18:00+26юв510415 0.0 1013710
21:00+22юв5155219 0.0 1012506